Tracking 25710 objects as of 6-Jul-2022
HD Live streaming from Space Station
objects crossing your sky now

FENGYUN 1C DEB

Track FENGYUN 1C DEB now!
10-day predictions


NORAD ID: 33646
Int'l Code: 1999-025DEF
Perigee: 830.9 km
Apogee: 1,013.7 km
Inclination: 98.5 °
Period: 103.3 minutes
Semi major axis: 7293 km
RCS: 0.0171 m2 (small)
Launch date: May 10, 1999
Source: People's Republic of China (PRC)
Launch site: Taiyaun Space Center, China (TSC)

Note: This is SATELLITE DEBRIS
aabbcc
Your satellite tracking list
Your tracking list is empty




NASA's NSSDC Master Catalog

Two Line Element Set (TLE):
1 33646U 99025DEF 22186.71574175  .00001035  00000-0  76298-3 0  9997
2 33646  98.5456 165.8454 0125343  67.9135 293.5282 13.93857490544950
Source of the keplerian elements: AFSPC